Aviation Digital Data Service (ADDS)

Output produced by METARs form (2238 UTC 30 March 2017)
found at http://www.aviationweather.gov/adds/metars/
 
WAAA 302230Z VRB01KT 9999 FEW018CB SCT019 25/25 Q1012 RETS NOSI G
TAF COR WAAA 301700Z 3018/3124 12003KT 9000 SCT019 BKN120 
     PROB40 
     TEMPO 3018/3022 6000 -RA BKN018 
     BECMG 3101/3103 29006KT 9999 SCT020 
     BECMG 3111/3113 11003KT
       
TAF WABB 301700Z 3018/0100 00000KT 9000 SCT018 
     TEMPO 3018/3100 5000 RA FEW017CB BKN018 
     BECMG 3100/3101 20005KT
       
WADD 302200Z VRB01KT 9999 FEW017 25/24 Q1011 NOSIG
TAF WADD 301700Z 3018/3118 VRB05KT 9999 FEW016CB SCT016 
     TEMPO 3020/3100 4000 RA FEW015CB BKN015 
     BECMG 3100/3102 27008KT
       
WADL 302230Z 00000KT 5000 BR FEW016 24/24 Q1012 NOSIG
TAF WADL 301700Z 3018/3118 00000KT 7000 SCT016 
     BECMG 3020/3023 3000 BR 
     BECMG 3100/3102 33010KT 9999 
     TEMPO 3105/3008 4000 TSRA FEW015CB
       
WAHS 302200Z 08003KT 6000 FEW015CB SCT016 26/25 Q1011 NOSIG
WALL 302200Z 30004KT 8000 FEW020 24/23 Q1011 NOSIG
TAF WALL 301700Z 3018/3124 VRB02KT 9999 FEW020 
     BECMG 3102/3104 05005KT 
     TEMPO 3104/3107 7000 -RA FEW017CB SCT018
       
WAMM 302230Z VRB01KT 9999 FEW022 24/23 Q1012 NOSIG
TAF WAMM 301700Z 3018/3124 05002KT 9999 FEW022 
     BECMG 3023/3101 36008KT SCT022 
     PROB30 
     TEMPO 3106/3110 6000 -RA BKN018
       
TAF WAOO 301700Z 3018/3118 07005KT 9000 SCT018 
     TEMPO 3103/3107 7000 RA
       
TAF WAPI 301700Z 3018/3106 26008KT 9000 SCT020
       
WAPP 302200Z 33005KT 9999 SCT018 24/23 Q1010 NOSIG
TAF WAPP 301700Z 3018/3118 32008KT 9999 SCT018 
     PROB40 
     TEMPO 3103/3107 6000 RA
       
WAQQ 302200Z 35002KT 6000 SCT015 24/24 Q1012 RERA
WARR 302200Z 27004KT 5000 HZ FEW020 25/23 Q1011 NOSIG
TAF WARR 301700Z 3018/3118 24004KT 5000 HZ FEW020 
     PROB40 
     TEMPO 3018/3020 3000 TSRA SCT020CB 
     BECMG 3101/3103 08010KT 9999 NSW 
     TEMPO 3106/3110 8000 SCT018CB
       
WATT 302200Z 08003KT 9999 SCT019 24/24 Q1012 NOSIG
TAF WATT 301700Z 3018/3118 00000KT SCT018 
     BECMG 3023/3100 30008KT 
     TEMPO 3102/3106 2000 TSRA FEW015CB BKN016
       
WIBB 302130Z AUTO 22003KT 190V260 6000NDV RA FEW031 SCT038 BKN050 23/23 Q1010
TAF WIBB 301700Z 3018/3118 00000KT 8000 SCT015 
     PROB30 
     BECMG 3020/3024 VRB10KT 5000 TSRA SCT012 FEW015CB
       
WIDD 302200Z 00000KT 8000 SCT014 24/24 Q1013
TAF WIDD 301700Z 3018/3118 00000KT 8000 SCT014 
     PROB30 
     TEMPO 3021/3100 6000 -TSRA FEW015CB 
     BECMG 3100/3102 04008KT 9000 SCT015
       
WIEE 302200Z 01003KT 9999 FEW020 25/24 Q1012
TAF WIEE 301700Z 3018/3118 04003KT 9000 SCT020 
     BECMG 3101/3103 24005KT 9999 FEW020
       
TAF WIHH 301700Z 3018/3118 20005KT 5000 HZ SCT022 
     BECMG 3102/3104 26008KT 6000 SCT018 
     TEMPO 3108/3111 30010KT 4000 -TSRA FEW017CB SCT019
       
WIII 302230Z 27006KT 6000 SCT020 24/24 Q1012 NOSIG
TAF WIII 302300Z 3100/0106 25005KT 5000 HZ SCT020 
     BECMG 3101/3103 32010KT 9999 NSW 
     TEMPO 3104/3108 5000 -TSRA FEW019CB BKN020 
     BECMG 3112/3114 25005KT 5000 HZ
       
WIMM 302200Z 00000KT 1300 R05/P2000 R23/P2000 BR SCT018 25/25 Q1010
TAF WIMM 301700Z 3018/3118 22005KT 3000 BR SCT018 
     BECMG 3102/3104 36010KT 9000 
     BECMG 3112/3114 22005KT 5000 HZ
       
WIOO 302200Z 12003KT 6000 SCT010 24/23 Q1012 NOSIG
WIPP 302200Z 28003KT 2000 BR FEW012 24/24 Q1011
TAF WIPP 301700Z 3018/3118 24005KT 5000 HZ BKN013 
     TEMPO 3021/3024 00000KT 1500 BR 
     BECMG 3100/3102 32008KT 9999 NSW 
     TEMPO 3110/3014 VRB10KT 3000 TSRA FEW015CB
       
TAF WITT 301700Z 3018/3118 14006KT 9000 SCT017 
     BECMG 3020/3022 00000KT 7000 FEW016CB 
     PROB30 
     TEMPO 3107/3111 18012KT 4000 RA FEW015CB SCT016 
     BECMG 3113/3115 00000KT 8000
       
WAAA 302230Z VRB01KT 9999 FEW018CB SCT019 25/25 Q1012 RETS NOSI G
TAF COR WAAA 301700Z 3018/3124 12003KT 9000 SCT019 BKN120 
     PROB40 
     TEMPO 3018/3022 6000 -RA BKN018 
     BECMG 3101/3103 29006KT 9999 SCT020 
     BECMG 3111/3113 11003KT
       
TAF WABB 301700Z 3018/0100 00000KT 9000 SCT018 
     TEMPO 3018/3100 5000 RA FEW017CB BKN018 
     BECMG 3100/3101 20005KT
       
WADD 302200Z VRB01KT 9999 FEW017 25/24 Q1011 NOSIG
TAF WADD 301700Z 3018/3118 VRB05KT 9999 FEW016CB SCT016 
     TEMPO 3020/3100 4000 RA FEW015CB BKN015 
     BECMG 3100/3102 27008KT
       
WADL 302230Z 00000KT 5000 BR FEW016 24/24 Q1012 NOSIG
TAF WADL 301700Z 3018/3118 00000KT 7000 SCT016 
     BECMG 3020/3023 3000 BR 
     BECMG 3100/3102 33010KT 9999 
     TEMPO 3105/3008 4000 TSRA FEW015CB
       
WAHS 302200Z 08003KT 6000 FEW015CB SCT016 26/25 Q1011 NOSIG
WALL 302200Z 30004KT 8000 FEW020 24/23 Q1011 NOSIG
TAF WALL 301700Z 3018/3124 VRB02KT 9999 FEW020 
     BECMG 3102/3104 05005KT 
     TEMPO 3104/3107 7000 -RA FEW017CB SCT018
       
WAMM 302230Z VRB01KT 9999 FEW022 24/23 Q1012 NOSIG
TAF WAMM 301700Z 3018/3124 05002KT 9999 FEW022 
     BECMG 3023/3101 36008KT SCT022 
     PROB30 
     TEMPO 3106/3110 6000 -RA BKN018
       
TAF WAOO 301700Z 3018/3118 07005KT 9000 SCT018 
     TEMPO 3103/3107 7000 RA
       
TAF WAPI 301700Z 3018/3106 26008KT 9000 SCT020
       
WAPP 302200Z 33005KT 9999 SCT018 24/23 Q1010 NOSIG
TAF WAPP 301700Z 3018/3118 32008KT 9999 SCT018 
     PROB40 
     TEMPO 3103/3107 6000 RA
       
WAQQ 302200Z 35002KT 6000 SCT015 24/24 Q1012 RERA
WARR 302200Z 27004KT 5000 HZ FEW020 25/23 Q1011 NOSIG
TAF WARR 301700Z 3018/3118 24004KT 5000 HZ FEW020 
     PROB40 
     TEMPO 3018/3020 3000 TSRA SCT020CB 
     BECMG 3101/3103 08010KT 9999 NSW 
     TEMPO 3106/3110 8000 SCT018CB
       
WATT 302200Z 08003KT 9999 SCT019 24/24 Q1012 NOSIG
TAF WATT 301700Z 3018/3118 00000KT SCT018 
     BECMG 3023/3100 30008KT 
     TEMPO 3102/3106 2000 TSRA FEW015CB BKN016
       
TAF WABB 301700Z 3018/0100 00000KT 9000 SCT018 
     TEMPO 3018/3100 5000 RA FEW017CB BKN018 
     BECMG 3100/3101 20005KT
       
WAAA 302230Z VRB01KT 9999 FEW018CB SCT019 25/25 Q1012 RETS NOSI G
TAF COR WAAA 301700Z 3018/3124 12003KT 9000 SCT019 BKN120 
     PROB40 
     TEMPO 3018/3022 6000 -RA BKN018 
     BECMG 3101/3103 29006KT 9999 SCT020 
     BECMG 3111/3113 11003KT
       
WAAA 302230Z VRB01KT 9999 FEW018CB SCT019 25/25 Q1012 RETS NOSI G
TAF COR WAAA 301700Z 3018/3124 12003KT 9000 SCT019 BKN120 
     PROB40 
     TEMPO 3018/3022 6000 -RA BKN018 
     BECMG 3101/3103 29006KT 9999 SCT020 
     BECMG 3111/3113 11003KT
       
TAF WABB 301700Z 3018/0100 00000KT 9000 SCT018 
     TEMPO 3018/3100 5000 RA FEW017CB BKN018 
     BECMG 3100/3101 20005KT
       
WADD 302200Z VRB01KT 9999 FEW017 25/24 Q1011 NOSIG
TAF WADD 301700Z 3018/3118 VRB05KT 9999 FEW016CB SCT016 
     TEMPO 3020/3100 4000 RA FEW015CB BKN015 
     BECMG 3100/3102 27008KT
       
WADL 302230Z 00000KT 5000 BR FEW016 24/24 Q1012 NOSIG
TAF WADL 301700Z 3018/3118 00000KT 7000 SCT016 
     BECMG 3020/3023 3000 BR 
     BECMG 3100/3102 33010KT 9999 
     TEMPO 3105/3008 4000 TSRA FEW015CB
       
WAHS 302200Z 08003KT 6000 FEW015CB SCT016 26/25 Q1011 NOSIG
WALL 302200Z 30004KT 8000 FEW020 24/23 Q1011 NOSIG
TAF WALL 301700Z 3018/3124 VRB02KT 9999 FEW020 
     BECMG 3102/3104 05005KT 
     TEMPO 3104/3107 7000 -RA FEW017CB SCT018
       
WAMM 302230Z VRB01KT 9999 FEW022 24/23 Q1012 NOSIG
TAF WAMM 301700Z 3018/3124 05002KT 9999 FEW022 
     BECMG 3023/3101 36008KT SCT022 
     PROB30 
     TEMPO 3106/3110 6000 -RA BKN018
       
TAF WAOO 301700Z 3018/3118 07005KT 9000 SCT018 
     TEMPO 3103/3107 7000 RA
       
TAF WAPI 301700Z 3018/3106 26008KT 9000 SCT020
       
WAPP 302200Z 33005KT 9999 SCT018 24/23 Q1010 NOSIG
TAF WAPP 301700Z 3018/3118 32008KT 9999 SCT018 
     PROB40 
     TEMPO 3103/3107 6000 RA
       
WAQQ 302200Z 35002KT 6000 SCT015 24/24 Q1012 RERA
WARR 302200Z 27004KT 5000 HZ FEW020 25/23 Q1011 NOSIG
TAF WARR 301700Z 3018/3118 24004KT 5000 HZ FEW020 
     PROB40 
     TEMPO 3018/3020 3000 TSRA SCT020CB 
     BECMG 3101/3103 08010KT 9999 NSW 
     TEMPO 3106/3110 8000 SCT018CB
       
WATT 302200Z 08003KT 9999 SCT019 24/24 Q1012 NOSIG
TAF WATT 301700Z 3018/3118 00000KT SCT018 
     BECMG 3023/3100 30008KT 
     TEMPO 3102/3106 2000 TSRA FEW015CB BKN016
       
WIBB 302130Z AUTO 22003KT 190V260 6000NDV RA FEW031 SCT038 BKN050 23/23 Q1010
TAF WIBB 301700Z 3018/3118 00000KT 8000 SCT015 
     PROB30 
     BECMG 3020/3024 VRB10KT 5000 TSRA SCT012 FEW015CB
       
WIDD 302200Z 00000KT 8000 SCT014 24/24 Q1013
TAF WIDD 301700Z 3018/3118 00000KT 8000 SCT014 
     PROB30 
     TEMPO 3021/3100 6000 -TSRA FEW015CB 
     BECMG 3100/3102 04008KT 9000 SCT015
       
WIEE 302200Z 01003KT 9999 FEW020 25/24 Q1012
TAF WIEE 301700Z 3018/3118 04003KT 9000 SCT020 
     BECMG 3101/3103 24005KT 9999 FEW020
       
TAF WIHH 301700Z 3018/3118 20005KT 5000 HZ SCT022 
     BECMG 3102/3104 26008KT 6000 SCT018 
     TEMPO 3108/3111 30010KT 4000 -TSRA FEW017CB SCT019
       
WIII 302230Z 27006KT 6000 SCT020 24/24 Q1012 NOSIG
TAF WIII 302300Z 3100/0106 25005KT 5000 HZ SCT020 
     BECMG 3101/3103 32010KT 9999 NSW 
     TEMPO 3104/3108 5000 -TSRA FEW019CB BKN020 
     BECMG 3112/3114 25005KT 5000 HZ
       
WIMM 302200Z 00000KT 1300 R05/P2000 R23/P2000 BR SCT018 25/25 Q1010
TAF WIMM 301700Z 3018/3118 22005KT 3000 BR SCT018 
     BECMG 3102/3104 36010KT 9000 
     BECMG 3112/3114 22005KT 5000 HZ
       
WIOO 302200Z 12003KT 6000 SCT010 24/23 Q1012 NOSIG
WIPP 302200Z 28003KT 2000 BR FEW012 24/24 Q1011
TAF WIPP 301700Z 3018/3118 24005KT 5000 HZ BKN013 
     TEMPO 3021/3024 00000KT 1500 BR 
     BECMG 3100/3102 32008KT 9999 NSW 
     TEMPO 3110/3014 VRB10KT 3000 TSRA FEW015CB
       
TAF WITT 301700Z 3018/3118 14006KT 9000 SCT017 
     BECMG 3020/3022 00000KT 7000 FEW016CB 
     PROB30 
     TEMPO 3107/3111 18012KT 4000 RA FEW015CB SCT016 
     BECMG 3113/3115 00000KT 8000
       
WAPP 302200Z 33005KT 9999 SCT018 24/23 Q1010 NOSIG
TAF WAPP 301700Z 3018/3118 32008KT 9999 SCT018 
     PROB40 
     TEMPO 3103/3107 6000 RA
       
WIMM 302200Z 00000KT 1300 R05/P2000 R23/P2000 BR SCT018 25/25 Q1010
TAF WIMM 301700Z 3018/3118 22005KT 3000 BR SCT018 
     BECMG 3102/3104 36010KT 9000 
     BECMG 3112/3114 22005KT 5000 HZ
       
WIBB 302130Z AUTO 22003KT 190V260 6000NDV RA FEW031 SCT038 BKN050 23/23 Q1010
TAF WIBB 301700Z 3018/3118 00000KT 8000 SCT015 
     PROB30 
     BECMG 3020/3024 VRB10KT 5000 TSRA SCT012 FEW015CB
       
WIDD 302200Z 00000KT 8000 SCT014 24/24 Q1013
TAF WIDD 301700Z 3018/3118 00000KT 8000 SCT014 
     PROB30 
     TEMPO 3021/3100 6000 -TSRA FEW015CB 
     BECMG 3100/3102 04008KT 9000 SCT015
       
WIEE 302200Z 01003KT 9999 FEW020 25/24 Q1012
TAF WIEE 301700Z 3018/3118 04003KT 9000 SCT020 
     BECMG 3101/3103 24005KT 9999 FEW020
       
TAF WIHH 301700Z 3018/3118 20005KT 5000 HZ SCT022 
     BECMG 3102/3104 26008KT 6000 SCT018 
     TEMPO 3108/3111 30010KT 4000 -TSRA FEW017CB SCT019
       
WIII 302230Z 27006KT 6000 SCT020 24/24 Q1012 NOSIG
TAF WIII 302300Z 3100/0106 25005KT 5000 HZ SCT020 
     BECMG 3101/3103 32010KT 9999 NSW 
     TEMPO 3104/3108 5000 -TSRA FEW019CB BKN020 
     BECMG 3112/3114 25005KT 5000 HZ
       
WIMM 302200Z 00000KT 1300 R05/P2000 R23/P2000 BR SCT018 25/25 Q1010
TAF WIMM 301700Z 3018/3118 22005KT 3000 BR SCT018 
     BECMG 3102/3104 36010KT 9000 
     BECMG 3112/3114 22005KT 5000 HZ
       
WIOO 302200Z 12003KT 6000 SCT010 24/23 Q1012 NOSIG
WIPP 302200Z 28003KT 2000 BR FEW012 24/24 Q1011
TAF WIPP 301700Z 3018/3118 24005KT 5000 HZ BKN013 
     TEMPO 3021/3024 00000KT 1500 BR 
     BECMG 3100/3102 32008KT 9999 NSW 
     TEMPO 3110/3014 VRB10KT 3000 TSRA FEW015CB
       
TAF WITT 301700Z 3018/3118 14006KT 9000 SCT017 
     BECMG 3020/3022 00000KT 7000 FEW016CB 
     PROB30 
     TEMPO 3107/3111 18012KT 4000 RA FEW015CB SCT016 
     BECMG 3113/3115 00000KT 8000
       
WAMM 302230Z VRB01KT 9999 FEW022 24/23 Q1012 NOSIG
TAF WAMM 301700Z 3018/3124 05002KT 9999 FEW022 
     BECMG 3023/3101 36008KT SCT022 
     PROB30 
     TEMPO 3106/3110 6000 -RA BKN018
       
WIII 302230Z 27006KT 6000 SCT020 24/24 Q1012 NOSIG
TAF WIII 302300Z 3100/0106 25005KT 5000 HZ SCT020 
     BECMG 3101/3103 32010KT 9999 NSW 
     TEMPO 3104/3108 5000 -TSRA FEW019CB BKN020 
     BECMG 3112/3114 25005KT 5000 HZ
       
TAF WITT 301700Z 3018/3118 14006KT 9000 SCT017 
     BECMG 3020/3022 00000KT 7000 FEW016CB 
     PROB30 
     TEMPO 3107/3111 18012KT 4000 RA FEW015CB SCT016 
     BECMG 3113/3115 00000KT 8000
       
WIPP 302200Z 28003KT 2000 BR FEW012 24/24 Q1011
TAF WIPP 301700Z 3018/3118 24005KT 5000 HZ BKN013 
     TEMPO 3021/3024 00000KT 1500 BR 
     BECMG 3100/3102 32008KT 9999 NSW 
     TEMPO 3110/3014 VRB10KT 3000 TSRA FEW015CB
       
WIBB 302130Z AUTO 22003KT 190V260 6000NDV RA FEW031 SCT038 BKN050 23/23 Q1010
TAF WIBB 301700Z 3018/3118 00000KT 8000 SCT015 
     PROB30 
     BECMG 3020/3024 VRB10KT 5000 TSRA SCT012 FEW015CB
       
WIOO 302200Z 12003KT 6000 SCT010 24/23 Q1012 NOSIG